User: anonymous   Login
Location: Saint Peter Port
(49.4500°N, 2.5330°W)
Time: 08:59:20
(UTC+00:00)
Language:

Cosmos 2242 Rocket - Orbit

View from above orbital plane
View from above orbital plane
View from above satellite
View from above satellite

Ground track
Ground track

The orbit data is extracted from the following two-line orbital elements,

1 22627U 93024B   14304.41050442  .00000473  00000-0  62709-4 0  4750
2 22627 082.5217 271.2135 0022845 224.8837 249.5220 14.77704502160381
Epoch (UTC): 31 October 2014 09:51:07
Eccentricity: 0.0022845
inclination: 82.5217°
perigee height: 620 km
apogee height: 652 km
right ascension of ascending node: 271.2135°
argument of perigee: 224.8837°
revolutions per day: 14.77704502
mean anomaly at epoch: 249.5220°
orbit number at epoch: 16038

The dashed part of the orbit path shows where the satellite is in the earth's shadow,  

DLR